Regional Weather Roundup
Issued by NWS

Home | Current Version | Previous Version | Graphics & Text | Print | Product List | Glossary On
Versions: 1 2 3 4 5 6 7 8 9 10 11 12 13 14 15 16 17 18 19 20 21 22 23 24 25 26 27 28 29 30 31 32 33 34 35 36 37 38 39 40 41 42 43 44 45 46 47 48 49 50
000
ASUS43 KMKX 281559
RWRWI

WISCONSIN REGIONAL WEATHER ROUNDUP
NATIONAL WEATHER SERVICE MILWAUKEE/SULLIVAN WI
1100 AM CDT SAT MAR 28 2015

NOTE: "FAIR" INDICATES FEW OR NO CLOUDS BELOW 12,000 FEET WITH NO
SIGNIFICANT WEATHER AND/OR OBSTRUCTIONS TO VISIBILITY.

WIZ001-002-006>008-014>016-023>028-281700-
NORTHWEST WISCONSIN

CITY           SKY/WX    TMP DP  RH WIND       PRES   REMARKS
SUPERIOR ARPT  SUNNY     33  13  44 SW5       30.24F WCI  28
ASHLAND        SUNNY     37  11  34 SW6       30.24F WCI  32
HAYWARD        SUNNY     33   7  33 SW8       30.23S WCI  26
SIREN          SUNNY     35   8  32 SW10      30.24F WCI  28
CUMBERLAND     SUNNY     32  12  43 S10       30.24S WCI  24
RICE LAKE      SUNNY     33  10  38 SW9       30.27S WCI  25
CHETEK         SUNNY     33  11  39 S6        30.26S WCI  27
LADYSMITH      SUNNY     33  17  52 S8        30.26F WCI  26
EAU CLAIRE     NOT AVBL
MENOMONIE      SUNNY     34  12  40 S5        30.28S WCI  30
NEW RICHMOND   SUNNY     33  12  41 S10       30.25S WCI  25
OSCEOLA        SUNNY     34  10  36 SE12      30.28F WCI  25
$$

WIZ003>005-009-010-017-018-281700-
NORTH CENTRAL WISCONSIN

CITY           SKY/WX    TMP DP  RH WIND       PRES   REMARKS
MANITOWISH WTR SUNNY     30  10  42 SW5       30.21F WCI  25
ARBOR VITAE    SUNNY     29  12  48 CALM      30.21S
WOODRUFF       SUNNY     29  12  48 CALM      30.21S
RHINELANDER    SUNNY     31  11  43 W6        30.23S WCI  25
EAGLE RIVER    SUNNY     28   8  44 CALM      30.22S
LAND O LAKES   SUNNY     29   6  36 SW3       30.22S
PHILLIPS       SUNNY     31  11  44 SW3       30.22F
TOMAHAWK       SUNNY     30   9  42 CALM      30.24S
MEDFORD        SUNNY     30  13  50 SW6       30.24S WCI  24
MERRILL        SUNNY     30  13  51 SW7       30.25F WCI  23
$$

WIZ029-030-035-036-043>047-281700-
CENTRAL WISCONSIN

CITY           SKY/WX    TMP DP  RH WIND       PRES   REMARKS
WAUSAU         SUNNY     31  10  41 W8        30.25F WCI  23
MOSINEE        SUNNY     30  14  51 SW6       30.28S WCI  24
MARSHFIELD     SUNNY     34   9  35 VRB5      30.26F WCI  30
STEVENS POINT  SUNNY     29  10  44 SW6       30.29F WCI  23
WAUPACA        SUNNY     32  14  47 SE3       30.31F
WAUTOMA        NOT AVBL
WISC RAPIDS    SUNNY     33   8  35 VRB6      30.30S WCI  28
CAMP DOUGLAS   NOT AVBL
$$

WIZ011>013-019>022-031-037>040-048>050-281700-
NORTHEAST WISCONSIN

CITY           SKY/WX    TMP DP  RH WIND       PRES   REMARKS
ANTIGO         SUNNY     27  13  56 SW3       30.25S
SHAWANO        SUNNY     31  16  53 S3        30.31F
OCONTO         SUNNY     28  13  55 SE5       30.34R WCI  22
STURGEON BAY   SUNNY     27   9  46 W7        30.34F WCI  19
GREEN BAY      SUNNY     30  15  53 VRB6      30.33S WCI  24
MANITOWOC      NOT AVBL
APPLETON       SUNNY     30  12  47 SW7       30.32S WCI  23
CLINTONVILLE   SUNNY     30  14  51 SW7       30.31F WCI  23
OSHKOSH        SUNNY     30  12  47 MISG      30.32S
$$

WIZ032>034-041-042-053>061-281700-
SOUTHWEST WISCONSIN

CITY           SKY/WX    TMP DP  RH WIND       PRES   REMARKS
LA CROSSE      SUNNY     34  17  50 S6        30.31S WCI  29
SPARTA         SUNNY     34  10  35 CALM      30.30S
VIROQUA        SUNNY     31  15  52 S6        30.28S WCI  25
BOSCOBEL       SUNNY     33  15  47 CALM      30.33S
PRAIRIE DU CHI SUNNY     30  14  51 CALM      30.32F
PLATTEVILLE    SUNNY     31  19  62 SE6       30.31S WCI  25
$$

WIZ056-057-062-063-064-067-068-281700-
SOUTH CENTRAL WISCONSIN

CITY           SKY/WX    TMP DP  RH WIND       PRES   REMARKS
REEDSBURG      SUNNY     31  15  50 S8        30.31S WCI  24
BARABOO/DELLS  SUNNY     32  11  41 S7        30.30F WCI  26
LONE ROCK      NOT AVBL
MINERAL POINT  SUNNY     28  19  69 S5        30.31R WCI  23
MADISON        SUNNY     31  14  49 VRB7      30.33R WCI  24
MIDDLETON      SUNNY     32  13  45 S7        30.33S WCI  26
WATERTOWN      SUNNY     30  13  49 CALM      30.33R
MONROE         SUNNY     30  19  64 S5        30.31S WCI  25
JANESVILLE     SUNNY     32   9  37 NE6       30.34R WCI  26
$$

WIZ051-052-058>065-066-070>072-281700-
SOUTHEAST WISCONSIN

CITY           SKY/WX    TMP DP  RH WIND       PRES   REMARKS
MILWAUKEE      MOSUNNY   31  15  52 E6        30.34S WCI  25
WAUKESHA       MOSUNNY   28  16  59 W5        30.34R WCI  23
MILWAUKEE/TIMM SUNNY     30  12  47 CALM      30.34S
RACINE         SUNNY     30  15  53 NE8       30.36S WCI  22
BURLINGTON     SUNNY     29  15  56 CALM      30.34S
KENOSHA        MOSUNNY   32  17  54 VRB6      30.34S WCI  26
FOND DU LAC    SUNNY     31  12  45 CALM      30.33R
SHEBOYGAN      SUNNY     28  14  55 VRB6      30.34R WCI  22
WEST BEND      SUNNY     30  10  43 CALM      30.33S
JUNEAU         SUNNY     29  13  51 CALM      30.34R
$$

LSZ147-162-281700-
LAKE SUPERIOR

STATION/POSITION TIME  TEMP    WIND        PRES    WAVE
                       AIR SEA DIR/SP/G            HT/PER
                 (UTC) (F)     (DEG/KT/KT) (MB)    (FT/S)
DEVILS ISLAND    1500   27     230/  6/  7 1025.6R
PORT WING        1500   29     310/  5/  6 1024.7
SAXON HARBOR     1500   29        CALM     1024.4F
$$

LMZ867-665-643>646-281700-
LAKE MICHIGAN

STATION/POSITION TIME  TEMP    WIND        PRES    WAVE
                       AIR SEA DIR/SP/G            HT/PER
                 (UTC) (F)     (DEG/KT/KT) (MB)    (FT/S)
NORTHPORT PIER   1523   23     120/  7/  9 1026.8F
SISTER BAY       1517   30        CALM       N/A
KEWAUNEE LAKESHO 1500   28     130/  2/  5 1026.4R
SHEBOYGAN LAKESH 1500   26      50/  2/  3 1028.6R
PORT WASHINGTON  1540   28     120/  6/  8 1028.1R
MILWAUKEE LAKESH 1500   28      90/  3/  5   N/A
KENOSHA   LAKESH 1500   26      40/  8/  9 1027.8R
$$

TC  - TEMPERATURE IN CELSIUS
VSB - VISIBILITY IN STATUTE MILES
WCI - WIND CHILL INDEX
HX  - HEAT INDEX




USA.gov is the U.S. government's official web portal to all federal, state and local government web resources and services.